Hourly Weather Bolshoe Gorohovische

Today, 24 July, Saturday

Time Temperature Precipitation Wind Pressure Humidity
00:00 +17°C° 0 mm 2 mps 743 mmHg 81%
01:00 +17°C° 0 mm 2 mps 744 mmHg 82%
02:00 +17°C° 0 mm 2 mps 744 mmHg 83%
03:00 +17°C° 0 mm 2 mps 744 mmHg 84%
04:00 +17°C° 0 mm 2 mps 744 mmHg 86%
05:00 +16°C° 0 mm 2 mps 744 mmHg 88%
06:00 +18°C° 0 mm 2 mps 744 mmHg 83%
07:00 +19°C° 0 mm 2 mps 744 mmHg 79%
08:00 +20°C° 0 mm 2 mps 744 mmHg 73%
09:00 +21°C° 0.1 mm 2 mps 744 mmHg 70%
10:00 +21°C° 0.1 mm 2 mps 744 mmHg 67%
11:00 +23°C° 0.1 mm 2 mps 745 mmHg 64%
12:00 +24°C° 0.5 mm 2 mps 744 mmHg 63%
13:00 +24°C° 0.5 mm 2 mps 744 mmHg 62%
14:00 +25°C° 0.5 mm 2 mps 744 mmHg 60%
15:00 +25°C° 0.6 mm 2 mps 744 mmHg 60%
16:00 +25°C° 0.6 mm 2 mps 744 mmHg 61%
17:00 +25°C° 0.6 mm 2 mps 745 mmHg 61%
18:00 +23°C° 0.1 mm 2 mps 745 mmHg 66%
19:00 +22°C° 0.1 mm 1 mps 745 mmHg 70%
20:00 +20°C° 0.1 mm 1 mps 745 mmHg 75%
21:00 +19°C° 0 mm 1 mps 745 mmHg 76%
22:00 +18°C° 0 mm 1 mps 745 mmHg 77%
23:00 +18°C° 0 mm 1 mps 745 mmHg 78%

Tomorrow, 25 July, Sunday

Time Temperature Precipitation Wind Pressure Humidity
00:00 +16°C° 0 mm 1 mps 746 mmHg 78%
01:00 +16°C° 0 mm 1 mps 746 mmHg 77%
02:00 +14°C° 0 mm 0 mps 746 mmHg 77%
03:00 +15°C° 0 mm 0 mps 746 mmHg 77%
04:00 +15°C° 0 mm 0 mps 746 mmHg 76%
05:00 +15°C° 0 mm 0 mps 746 mmHg 75%
06:00 +16°C° 0 mm 0 mps 746 mmHg 73%
07:00 +19°C° 0 mm 1 mps 747 mmHg 70%
08:00 +21°C° 0 mm 1 mps 747 mmHg 67%
09:00 +22°C° 0 mm 1 mps 747 mmHg 64%
10:00 +23°C° 0 mm 1 mps 747 mmHg 60%
11:00 +24°C° 0 mm 1 mps 747 mmHg 57%
12:00 +25°C° 0.1 mm 1 mps 747 mmHg 54%
13:00 +26°C° 0.1 mm 1 mps 747 mmHg 50%
14:00 +27°C° 0.1 mm 1 mps 747 mmHg 47%
15:00 +27°C° 0 mm 1 mps 747 mmHg 48%
16:00 +27°C° 0 mm 2 mps 747 mmHg 49%
17:00 +27°C° 0 mm 2 mps 747 mmHg 50%
18:00 +25°C° 0 mm 2 mps 747 mmHg 56%
19:00 +23°C° 0 mm 2 mps 747 mmHg 62%
20:00 +22°C° 0 mm 1 mps 747 mmHg 69%
21:00 +21°C° 0 mm 1 mps 747 mmHg 69%
22:00 +21°C° 0 mm 1 mps 748 mmHg 69%
23:00 +20°C° 0 mm 1 mps 748 mmHg 70%

Day after tomorrow, 26 July, Monday

Time Temperature Precipitation Wind Pressure Humidity
00:00 +20°C° 0 mm 1 mps 748 mmHg 72%
01:00 +19°C° 0 mm 1 mps 748 mmHg 75%
02:00 +17°C° 0 mm 2 mps 748 mmHg 77%
03:00 +17°C° 0 mm 2 mps 748 mmHg 79%
04:00 +17°C° 0 mm 2 mps 748 mmHg 80%
05:00 +17°C° 0 mm 2 mps 748 mmHg 82%
06:00 +19°C° 0 mm 2 mps 748 mmHg 75%
07:00 +20°C° 0 mm 2 mps 748 mmHg 69%
08:00 +23°C° 0 mm 2 mps 748 mmHg 62%
09:00 +25°C° 0 mm 3 mps 748 mmHg 57%
10:00 +27°C° 0 mm 3 mps 748 mmHg 51%
11:00 +28°C° 0 mm 3 mps 749 mmHg 45%
12:00 +28°C° 0 mm 3 mps 748 mmHg 45%
13:00 +28°C° 0 mm 3 mps 748 mmHg 45%
14:00 +28°C° 0 mm 3 mps 748 mmHg 44%
15:00 +28°C° 0 mm 3 mps 748 mmHg 46%
16:00 +28°C° 0 mm 4 mps 748 mmHg 48%
17:00 +27°C° 0 mm 4 mps 747 mmHg 50%
18:00 +26°C° 0 mm 4 mps 747 mmHg 56%
19:00 +23°C° 0 mm 4 mps 747 mmHg 61%
20:00 +22°C° 0 mm 4 mps 747 mmHg 67%
21:00 +21°C° 0 mm 4 mps 747 mmHg 68%
22:00 +20°C° 0 mm 3 mps 747 mmHg 69%
23:00 +19°C° 0 mm 3 mps 748 mmHg 71%

27 July, Tuesday

Time Temperature Precipitation Wind Pressure Humidity
00:00 +19°C° 0 mm 3 mps 747 mmHg 73%
01:00 +18°C° 0 mm 3 mps 747 mmHg 75%
02:00 +18°C° 0 mm 3 mps 747 mmHg 76%
03:00 +18°C° 0 mm 3 mps 747 mmHg 76%
04:00 +18°C° 0 mm 3 mps 747 mmHg 76%
05:00 +18°C° 0 mm 3 mps 747 mmHg 75%
06:00 +20°C° 0 mm 4 mps 747 mmHg 71%
07:00 +22°C° 0 mm 4 mps 747 mmHg 66%
08:00 +23°C° 0 mm 5 mps 747 mmHg 61%
09:00 +26°C° 0 mm 5 mps 747 mmHg 55%
10:00 +27°C° 0 mm 6 mps 747 mmHg 50%
11:00 +29°C° 0 mm 6 mps 747 mmHg 45%
12:00 +30°C° 0 mm 6 mps 746 mmHg 43%
13:00 +30°C° 0 mm 6 mps 746 mmHg 41%
14:00 +32°C° 0 mm 6 mps 746 mmHg 39%
15:00 +30°C° 0 mm 5 mps 745 mmHg 42%
16:00 +30°C° 0 mm 5 mps 745 mmHg 45%
17:00 +29°C° 0 mm 4 mps 745 mmHg 48%
18:00 +28°C° 0.1 mm 4 mps 744 mmHg 53%
19:00 +27°C° 0.1 mm 4 mps 744 mmHg 58%
20:00 +25°C° 0.1 mm 4 mps 743 mmHg 64%
21:00 +24°C° 0.8 mm 3 mps 744 mmHg 73%
22:00 +21°C° 0.8 mm 2 mps 744 mmHg 83%
23:00 +21°C° 0.8 mm 1 mps 744 mmHg 93%

28 July, Wednesday

Time Temperature Precipitation Wind Pressure Humidity
00:00 +21°C° 0.6 mm 1 mps 744 mmHg 94%
01:00 +21°C° 0.6 mm 1 mps 743 mmHg 95%
02:00 +20°C° 0.6 mm 1 mps 743 mmHg 96%
03:00 +20°C° 0.3 mm 1 mps 743 mmHg 96%
04:00 +20°C° 0.3 mm 1 mps 743 mmHg 97%
05:00 +20°C° 0.3 mm 1 mps 742 mmHg 97%
06:00 +21°C° 0.1 mm 1 mps 742 mmHg 94%
07:00 +21°C° 0.1 mm 1 mps 742 mmHg 92%
08:00 +22°C° 0.1 mm 1 mps 742 mmHg 89%
09:00 +23°C° 0.2 mm 1 mps 742 mmHg 85%
10:00 +24°C° 0.2 mm 1 mps 742 mmHg 80%
11:00 +25°C° 0.2 mm 1 mps 742 mmHg 75%
12:00 +26°C° 0.4 mm 2 mps 742 mmHg 71%
13:00 +27°C° 0.4 mm 2 mps 742 mmHg 68%
14:00 +27°C° 0.4 mm 3 mps 742 mmHg 64%
15:00 +27°C° 0.1 mm 3 mps 742 mmHg 64%
16:00 +27°C° 0.1 mm 3 mps 742 mmHg 63%
17:00 +27°C° 0.1 mm 2 mps 742 mmHg 63%
18:00 +26°C° 0.3 mm 2 mps 742 mmHg 69%
19:00 +24°C° 0.3 mm 2 mps 742 mmHg 75%
20:00 +23°C° 0.3 mm 1 mps 742 mmHg 81%
21:00 +22°C° 0 mm 1 mps 741 mmHg 82%
22:00 +21°C° 0 mm 1 mps 741 mmHg 84%
23:00 +21°C° 0 mm 1 mps 741 mmHg 86%

29 July, Thursday

Time Temperature Precipitation Wind Pressure Humidity
00:00 +21°C° 0 mm 1 mps 741 mmHg 87%
01:00 +19°C° 0 mm 2 mps 741 mmHg 88%
02:00 +19°C° 0 mm 2 mps 741 mmHg 89%
03:00 +19°C° 0 mm 2 mps 741 mmHg 89%
04:00 +19°C° 0 mm 2 mps 741 mmHg 90%
05:00 +19°C° 0 mm 2 mps 741 mmHg 90%
06:00 +20°C° 0 mm 2 mps 742 mmHg 85%
07:00 +22°C° 0 mm 3 mps 742 mmHg 80%
08:00 +24°C° 0 mm 3 mps 742 mmHg 74%
09:00 +26°C° 0 mm 3 mps 742 mmHg 68%
10:00 +27°C° 0 mm 3 mps 742 mmHg 62%
11:00 +28°C° 0 mm 3 mps 742 mmHg 56%
12:00 +29°C° 0 mm 4 mps 742 mmHg 54%
13:00 +29°C° 0 mm 4 mps 742 mmHg 52%
14:00 +30°C° 0 mm 4 mps 742 mmHg 50%
15:00 +29°C° 0 mm 4 mps 742 mmHg 51%
16:00 +29°C° 0 mm 4 mps 742 mmHg 52%
17:00 +28°C° 0 mm 4 mps 742 mmHg 52%
18:00 +27°C° 0 mm 3 mps 742 mmHg 59%
19:00 +25°C° 0 mm 3 mps 742 mmHg 66%
20:00 +23°C° 0 mm 2 mps 742 mmHg 73%
21:00 +21°C° 0 mm 2 mps 742 mmHg 75%
22:00 +20°C° 0 mm 2 mps 743 mmHg 77%
23:00 +19°C° 0 mm 2 mps 743 mmHg 78%
Show more

We Need Your Consent

Meteoprog and our Service Providers may store and access personal data such as cookies, device identifiers or other similar technologies on your device and process such data to personalise content and ads, as well as provide social media features and to analyse the traffic.

  • Store and/or access information on your device

    Cookies, device identifiers or other information can be stored or accessed on your device for the purposes indicated above.

  • Personalised ads and content, ad and content measurement, audience insights, and products development

    Ads and content can be personalised based on a profile. More data can be added to better personalise ads and content. Ad and content performance can be measured. Insights about the audience who saw the ads and content can be derived. Such data can be used to develop or improve user’s experience, systems and software.

By clicking ‘I Agree’ you will allow the use of indicated cookies, device identifiers, web beacons or other similar technologies. Your settings can be changed in the browser on your device.

For certain purposes, legitimate interests may be relied on, rather than consent. You can read more about this in our Privacy and Cookie Policy.